Syracuse, NY

9:17 PM EDT on April 28, 2017 (GMT -0400)
Syracuse Hancock International

Weather History for KSYR - June, 2013

Change the Weather History Date:

Tuesday, June 18, 2013

  Actual Average Record
Temperature  
Mean Temperature 63 °F 68 °F  
Max Temperature 72 °F 78 °F 96 °F (1957)
Min Temperature 54 °F 57 °F 42 °F (1950)
Degree Days  
Heating Degree Days 2 1  
Month to date heating degree days 52 49  
Since 1 June heating degree days 52 49  
Since 1 July heating degree days 6138 6639  
Cooling Degree Days 0 4  
Month to date cooling degree days 27 52  
Year to date cooling degree days 79 82  
Since 1 June cooling degree days 27 52  
Growing Degree Days 14 (Base 50)    
Moisture  
Dew Point 53 °F    
Average Humidity 70    
Maximum Humidity 93    
Minimum Humidity 47    
Precipitation  
Precipitation 0.02 in 0.11 in 1.19 in (1905)
Month to date precipitation 4.87 1.97  
Year to date precipitation 18.81 15.90  
Snow  
Snow 0.00 in 0.00 in 0.00 in (2002)
Month to date snowfall 0.0 0.0  
Since 1 June snowfall 0.0 0.0  
Since 1 July snowfall 115.4 123.8  
Snow Depth 0.00 in    
Sea Level Pressure  
Sea Level Pressure 29.94 in    
Wind  
Wind Speed 5 mph (North)    
Max Wind Speed 14 mph    
Max Gust Speed 18 mph    
Visibility 10 miles    
Events Rain    
T = Trace of Precipitation, MM = Missing Value Source: NWS Daily Summary

Daily Weather History Graph

Daily Weather History Graph

Search for Another Location

Airport or City:

Trip Planner

Search our weather history database for the weather conditions in past years. The results will help you decide how hot, cold, wet, or windy it might be!

Date:

Astronomy

Jun. 18, 2013 Rise Set
Actual Time 5:24 AM EDT 8:46 PM EDT
Civil Twilight 4:49 AM EDT 9:22 PM EDT
Nautical Twilight 4:02 AM EDT 10:08 PM EDT
Astronomical Twilight 3:05 AM EDT 11:06 PM EDT
Moon 3:22 PM EDT (6/18) 1:38 AM EDT (6/18)
Length of Visible Light 16h 33m
Length of Day
15h 22m
Waxing Gibbous, 70% of the Moon is Illuminated
Jun 18
Waxing Gibbous
Jun 23
Full
Jun 30
Last Quarter
Jul 8
New
Jul 15
First Quarter

Hourly Weather History & Observations

Time (EDT) Temp. Dew Point Humidity Pressure Visibility Wind Dir Wind Speed Gust Speed Precip Events Conditions
12:54 AM 61.0 °F 57.0 °F 87% 29.91 in 10.0 mi Calm Calm - N/A   Scattered Clouds
1:54 AM 59.0 °F 55.0 °F 87% 29.91 in 10.0 mi East 3.5 mph - N/A   Mostly Cloudy
2:54 AM 57.9 °F 55.0 °F 90% 29.90 in 10.0 mi East 3.5 mph - N/A   Overcast
3:54 AM 59.0 °F 55.9 °F 90% 29.89 in 10.0 mi Calm Calm - N/A   Overcast
4:54 AM 59.0 °F 55.9 °F 90% 29.89 in 10.0 mi East 3.5 mph - 0.00 in Rain Light Rain
5:54 AM 59.0 °F 55.9 °F 90% 29.89 in 10.0 mi ESE 4.6 mph - 0.02 in Rain Light Rain
6:54 AM 59.0 °F 55.9 °F 90% 29.91 in 10.0 mi Calm Calm - 0.00 in   Overcast
7:54 AM 62.1 °F 57.9 °F 86% 29.93 in 10.0 mi NNE 3.5 mph - N/A   Overcast
8:46 AM 60.8 °F 53.6 °F 77% 29.95 in 10.0 mi NNW 5.8 mph - N/A   Overcast
8:54 AM 62.1 °F 54.0 °F 75% 29.95 in 10.0 mi North 6.9 mph - N/A   Overcast
9:34 AM 60.8 °F 53.6 °F 77% 29.96 in 10.0 mi North 6.9 mph - N/A   Overcast
9:46 AM 60.8 °F 53.6 °F 77% 29.97 in 10.0 mi North 5.8 mph - N/A   Overcast
9:54 AM 61.0 °F 53.1 °F 75% 29.96 in 10.0 mi North 9.2 mph - N/A   Overcast
10:54 AM 62.1 °F 54.0 °F 75% 29.96 in 10.0 mi North 4.6 mph - N/A   Overcast
11:54 AM 63.0 °F 54.0 °F 72% 29.96 in 10.0 mi NNE 3.5 mph - N/A   Overcast
12:54 PM 66.9 °F 55.9 °F 68% 29.96 in 10.0 mi North 3.5 mph - N/A   Overcast
1:54 PM 68.0 °F 54.0 °F 61% 29.95 in 10.0 mi Calm Calm - N/A   Mostly Cloudy
2:54 PM 70.0 °F 54.0 °F 57% 29.94 in 10.0 mi North 3.5 mph - N/A   Mostly Cloudy
3:54 PM 71.1 °F 52.0 °F 51% 29.93 in 10.0 mi NNE 6.9 mph - N/A   Mostly Cloudy
4:54 PM 71.1 °F 50.0 °F 47% 29.91 in 10.0 mi NW 6.9 mph - N/A   Mostly Cloudy
5:54 PM 71.1 °F 51.1 °F 49% 29.92 in 10.0 mi NNW 6.9 mph - N/A   Mostly Cloudy
6:54 PM 69.1 °F 48.9 °F 49% 29.92 in 10.0 mi NNW 10.4 mph - N/A   Scattered Clouds
7:54 PM 66.0 °F 48.0 °F 52% 29.94 in 10.0 mi NNW 9.2 mph 18.4 mph N/A   Scattered Clouds
8:54 PM 63.0 °F 48.9 °F 60% 29.96 in 10.0 mi NNW 8.1 mph - N/A   Scattered Clouds
9:54 PM 59.0 °F 50.0 °F 72% 29.98 in 10.0 mi NNW 10.4 mph - N/A   Partly Cloudy
10:54 PM 57.0 °F 50.0 °F 77% 29.99 in 10.0 mi NW 4.6 mph - N/A   Partly Cloudy
11:54 PM 55.0 °F 50.0 °F 83% 30.00 in 10.0 mi Calm Calm - N/A   Partly Cloudy